Location: Newark
(52.4787°S, 179.0532°W)
Time: 13:51:55
(UTC+00:00)

Vanguard 1 Rocket - All Passes

Search period start: 19 November 2019 00:00
Search period end: 29 November 2019 00:00
Orbit: 651 x 4226 km, 34.3° (Epoch: 18 November)

Date Brightness Start Highest point End Pass type
(mag) Time Alt. Az. Time Alt. Az. Time Alt. Az.
19 Nov - 00:24:01 10° N 00:40:26 26° NE 00:58:31 10° E daylight
19 Nov - 02:46:13 10° NW 03:08:20 43° NNE 03:29:15 10° E daylight
19 Nov - 05:14:06 10° WNW 05:37:47 46° N 05:55:47 10° NE daylight
19 Nov - 07:45:56 10° W 08:05:13 31° NW 08:18:35 10° NNE visible
19 Nov - 23:16:45 10° NNE 23:28:21 17° NE 23:41:20 10° E daylight
20 Nov - 01:34:47 10° NNW 01:54:42 37° NNE 02:15:51 10° E daylight
20 Nov - 04:00:30 10° WNW 04:23:57 48° N 04:44:05 10° ENE daylight
20 Nov - 06:30:32 10° W 06:52:45 40° NNW 07:08:45 10° NE daylight
20 Nov - 09:05:22 10° W 09:18:09 19° NW 09:27:55 10° NNW visible
21 Nov - 00:24:37 10° NNW 00:41:40 30° NE 01:01:19 10° E daylight
21 Nov - 02:47:50 10° NW 03:09:56 46° NNE 03:31:35 10° ENE daylight
21 Nov - 05:16:01 10° WNW 05:39:30 45° NNW 05:57:57 10° NE daylight
21 Nov - 07:48:12 10° W 08:06:40 28° NW 08:20:05 10° N daylight
21 Nov - 23:16:12 10° N 23:29:26 21° NE 23:45:04 10° E daylight
22 Nov - 01:36:12 10° NW 01:56:10 41° NNE 02:18:13 10° E daylight
22 Nov - 04:02:22 10° WNW 04:25:38 48° N 04:46:18 10° ENE daylight
22 Nov - 06:32:36 10° W 06:54:18 37° NNW 07:10:34 10° NNE daylight
22 Nov - 09:08:58 10° W 09:19:21 15° WNW 09:27:53 10° NNW visible
22 Nov - 22:12:17 10° NE 22:18:01 12° ENE 22:24:17 10° ENE daylight
23 Nov - 00:25:41 10° NNW 00:42:59 33° NE 01:03:50 10° E daylight
23 Nov - 02:49:39 10° NW 03:11:34 47° N 03:33:48 10° ENE daylight
23 Nov - 05:18:02 10° W 05:41:07 44° NNW 05:59:58 10° NE daylight
23 Nov - 07:50:43 10° W 08:07:59 25° NW 08:21:13 10° N daylight
23 Nov - 23:16:34 10° N 23:30:35 25° NE 23:48:07 10° E daylight
24 Nov - 01:37:53 10° NW 01:57:42 43° NNE 02:20:27 10° E daylight
24 Nov - 04:04:23 10° WNW 04:27:19 48° N 04:48:24 10° ENE daylight
24 Nov - 06:34:49 10° W 06:55:45 34° NW 07:12:10 10° NNE daylight
24 Nov - 09:14:13 10° WNW 09:20:27 12° WNW 09:26:02 10° NW visible
24 Nov - 22:09:58 10° NNE 22:19:03 15° ENE 22:29:52 10° E daylight
25 Nov - 00:27:06 10° NNW 00:44:23 37° NNE 01:06:09 10° E daylight
25 Nov - 02:51:38 10° WNW 03:13:14 48° N 03:35:55 10° ENE daylight
25 Nov - 05:20:10 10° W 05:42:41 41° NNW 06:01:47 10° NE daylight
25 Nov - 07:53:36 10° W 08:09:11 21° NW 08:21:49 10° N daylight
25 Nov - 23:17:31 10° N 23:31:51 28° NE 23:50:43 10° E daylight
26 Nov - 01:39:46 10° NW 01:59:18 45° NNE 02:22:34 10° ENE daylight
26 Nov - 04:06:31 10° WNW 04:28:57 46° NNW 04:50:20 10° NE daylight
26 Nov - 06:37:13 10° W 06:57:05 30° NW 07:13:25 10° NNE daylight
26 Nov - 22:09:41 10° NNE 22:20:12 19° NE 22:33:36 10° E daylight
27 Nov - 00:28:50 10° NW 00:45:52 40° NNE 01:08:18 10° E daylight
27 Nov - 02:53:45 10° WNW 03:14:55 48° N 03:37:55 10° ENE daylight
27 Nov - 05:22:26 10° W 05:44:09 38° NNW 06:03:21 10° NNE daylight
27 Nov - 07:57:07 10° W 08:10:18 17° NW 08:21:36 10° NNW daylight
27 Nov - 23:18:53 10° NNW 23:33:14 32° NE 23:53:04 10° E daylight
28 Nov - 01:41:50 10° NW 02:00:57 47° N 02:24:34 10° ENE daylight
28 Nov - 04:08:46 10° W 04:30:34 44° NNW 04:52:05 10° NE daylight
28 Nov - 06:39:53 10° W 06:58:20 26° NW 07:14:14 10° N daylight
28 Nov - 22:10:19 10° N 22:21:28 22° NE 22:36:35 10° E daylight
